• In Russia
  • List of Countries
  • For 7 days
  • Water Temperature
  • Weather Map
  • Weather Widgets
  • user-avatar
    Login

    Hourly Weather Neiva

    Today, 19 January, Sunday

    Time Temperature Precipitation Wind Pressure Humidity
    00:00 +27°C° 0 mm 2 mps 720 mmHg 70%
    01:00 +27°C° 0 mm 2 mps 720 mmHg 71%
    02:00 +27°C° 0 mm 1 mps 720 mmHg 72%
    03:00 +26°C° 0 mm 1 mps 720 mmHg 73%
    04:00 +26°C° 0 mm 1 mps 720 mmHg 73%
    05:00 +27°C° 0 mm 1 mps 720 mmHg 73%
    06:00 +27°C° 0 mm 1 mps 720 mmHg 72%
    07:00 +27°C° 0 mm 1 mps 720 mmHg 72%
    08:00 +29°C° 0 mm 1 mps 721 mmHg 67%
    09:00 +30°C° 0 mm 2 mps 722 mmHg 62%
    10:00 +32°C° 0 mm 2 mps 722 mmHg 58%
    11:00 +34°C° 0 mm 2 mps 721 mmHg 53%
    12:00 +36°C° 0 mm 3 mps 721 mmHg 49%
    13:00 +37°C° 0 mm 3 mps 720 mmHg 44%
    14:00 +37°C° 0.1 mm 3 mps 719 mmHg 45%
    15:00 +37°C° 0.1 mm 3 mps 718 mmHg 46%
    16:00 +36°C° 0.1 mm 3 mps 718 mmHg 47%
    17:00 +34°C° 0.1 mm 3 mps 718 mmHg 53%
    18:00 +31°C° 0.1 mm 2 mps 719 mmHg 60%
    19:00 +29°C° 0.1 mm 2 mps 719 mmHg 66%
    20:00 +29°C° 0.1 mm 2 mps 720 mmHg 68%
    21:00 +28°C° 0.1 mm 2 mps 721 mmHg 70%
    22:00 +28°C° 0.1 mm 2 mps 721 mmHg 72%
    23:00 +27°C° 0 mm 2 mps 721 mmHg 73%

    Tomorrow, 20 January, Monday

    Time Temperature Precipitation Wind Pressure Humidity
    00:00 +27°C° 0 mm 2 mps 721 mmHg 73%
    01:00 +27°C° 0 mm 2 mps 721 mmHg 74%
    02:00 +26°C° 0 mm 1 mps 720 mmHg 74%
    03:00 +26°C° 0 mm 1 mps 720 mmHg 75%
    04:00 +26°C° 0 mm 1 mps 720 mmHg 75%
    05:00 +26°C° 0 mm 1 mps 720 mmHg 75%
    06:00 +27°C° 0 mm 1 mps 721 mmHg 75%
    07:00 +27°C° 0 mm 1 mps 721 mmHg 75%
    08:00 +28°C° 0 mm 1 mps 721 mmHg 70%
    09:00 +30°C° 0 mm 1 mps 722 mmHg 64%
    10:00 +31°C° 0 mm 1 mps 722 mmHg 59%
    11:00 +33°C° 0.2 mm 1 mps 721 mmHg 55%
    12:00 +34°C° 0.2 mm 1 mps 721 mmHg 51%
    13:00 +36°C° 0.2 mm 1 mps 720 mmHg 48%
    14:00 +35°C° 0.4 mm 1 mps 720 mmHg 48%
    15:00 +35°C° 0.4 mm 1 mps 719 mmHg 48%
    16:00 +35°C° 0.4 mm 1 mps 718 mmHg 49%
    17:00 +33°C° 0.6 mm 1 mps 719 mmHg 56%
    18:00 +31°C° 0.6 mm 1 mps 719 mmHg 62%
    19:00 +30°C° 0.6 mm 1 mps 719 mmHg 69%
    20:00 +29°C° 1.8 mm 1 mps 720 mmHg 74%
    21:00 +28°C° 1.8 mm 1 mps 721 mmHg 79%
    22:00 +27°C° 1.8 mm 1 mps 721 mmHg 83%
    23:00 +27°C° 0.7 mm 1 mps 721 mmHg 85%

    Day after tomorrow, 21 January, Tuesday

    Time Temperature Precipitation Wind Pressure Humidity
    00:00 +27°C° 0.7 mm 1 mps 721 mmHg 86%
    01:00 +26°C° 0.7 mm 1 mps 720 mmHg 88%
    02:00 +26°C° 0.2 mm 1 mps 720 mmHg 88%
    03:00 +24°C° 0.2 mm 0 mps 720 mmHg 88%
    04:00 +24°C° 0.2 mm 0 mps 719 mmHg 87%
    05:00 +24°C° 0.1 mm 0 mps 720 mmHg 86%
    06:00 +24°C° 0.1 mm 0 mps 720 mmHg 85%
    07:00 +24°C° 0.1 mm 0 mps 720 mmHg 85%
    08:00 +25°C° 0.8 mm 0 mps 721 mmHg 82%
    09:00 +28°C° 0.8 mm 1 mps 721 mmHg 80%
    10:00 +29°C° 0.8 mm 1 mps 722 mmHg 77%
    11:00 +29°C° 1.7 mm 1 mps 721 mmHg 78%
    12:00 +29°C° 1.7 mm 2 mps 721 mmHg 78%
    13:00 +29°C° 1.7 mm 2 mps 720 mmHg 79%
    14:00 +29°C° 0.9 mm 2 mps 720 mmHg 80%
    15:00 +29°C° 0.9 mm 1 mps 719 mmHg 80%
    16:00 +29°C° 0.9 mm 1 mps 718 mmHg 81%
    17:00 +28°C° 0.3 mm 1 mps 719 mmHg 83%
    18:00 +27°C° 0.3 mm 1 mps 719 mmHg 85%
    19:00 +27°C° 0.3 mm 1 mps 719 mmHg 86%
    20:00 +25°C° 0.4 mm 0 mps 720 mmHg 87%
    21:00 +24°C° 0.4 mm 0 mps 720 mmHg 87%
    22:00 +24°C° 0.4 mm 0 mps 721 mmHg 87%
    23:00 +24°C° 0.6 mm 0 mps 721 mmHg 88%

    22 January, Wednesday

    Time Temperature Precipitation Wind Pressure Humidity
    00:00 +26°C° 0.6 mm 1 mps 720 mmHg 89%
    01:00 +26°C° 0.6 mm 1 mps 720 mmHg 90%
    02:00 +24°C° 0.3 mm 0 mps 720 mmHg 89%
    03:00 +23°C° 0.3 mm 0 mps 720 mmHg 89%
    04:00 +23°C° 0.3 mm 0 mps 719 mmHg 89%
    05:00 +23°C° 0.1 mm 0 mps 720 mmHg 88%
    06:00 +24°C° 0.1 mm 0 mps 720 mmHg 88%
    07:00 +24°C° 0.1 mm 0 mps 720 mmHg 88%
    08:00 +27°C° 0.1 mm 1 mps 720 mmHg 83%
    09:00 +28°C° 0.1 mm 1 mps 721 mmHg 79%
    10:00 +30°C° 0.1 mm 2 mps 721 mmHg 74%
    11:00 +31°C° 0.4 mm 2 mps 721 mmHg 70%
    12:00 +31°C° 0.4 mm 2 mps 720 mmHg 66%
    13:00 +32°C° 0.4 mm 2 mps 719 mmHg 62%
    14:00 +32°C° 0.3 mm 2 mps 719 mmHg 62%
    15:00 +32°C° 0.3 mm 2 mps 718 mmHg 63%
    16:00 +32°C° 0.3 mm 2 mps 717 mmHg 63%
    17:00 +31°C° 0.6 mm 2 mps 718 mmHg 68%
    18:00 +30°C° 0.6 mm 2 mps 718 mmHg 73%
    19:00 +28°C° 0.6 mm 2 mps 718 mmHg 77%
    20:00 +28°C° 0 mm 2 mps 719 mmHg 77%
    21:00 +28°C° 0 mm 1 mps 720 mmHg 77%
    22:00 +27°C° 0 mm 1 mps 720 mmHg 77%
    23:00 +27°C° 0.6 mm 1 mps 720 mmHg 80%

    23 January, Thursday

    Time Temperature Precipitation Wind Pressure Humidity
    00:00 +26°C° 0.6 mm 1 mps 720 mmHg 83%
    01:00 +26°C° 0.6 mm 1 mps 719 mmHg 86%
    02:00 +26°C° 0.2 mm 1 mps 719 mmHg 87%
    03:00 +25°C° 0.2 mm 1 mps 719 mmHg 88%
    04:00 +25°C° 0.2 mm 1 mps 719 mmHg 89%
    05:00 +25°C° 0.1 mm 1 mps 719 mmHg 90%
    06:00 +25°C° 0.1 mm 1 mps 720 mmHg 91%
    07:00 +25°C° 0.1 mm 1 mps 721 mmHg 91%
    08:00 +26°C° 0.2 mm 1 mps 721 mmHg 90%
    09:00 +26°C° 0.2 mm 1 mps 721 mmHg 89%
    10:00 +24°C° 0.2 mm 0 mps 721 mmHg 88%
    11:00 +28°C° 0.2 mm 1 mps 721 mmHg 81%
    12:00 +29°C° 0.2 mm 2 mps 720 mmHg 75%
    13:00 +31°C° 0.2 mm 2 mps 719 mmHg 68%
    14:00 +31°C° 0.2 mm 2 mps 719 mmHg 66%
    15:00 +32°C° 0.2 mm 2 mps 718 mmHg 64%
    16:00 +33°C° 0.2 mm 3 mps 717 mmHg 62%
    17:00 +31°C° 0.3 mm 2 mps 718 mmHg 67%
    18:00 +29°C° 0.3 mm 2 mps 718 mmHg 72%
    19:00 +28°C° 0.3 mm 1 mps 719 mmHg 77%
    20:00 +27°C° 0.4 mm 1 mps 719 mmHg 78%
    21:00 +27°C° 0.4 mm 1 mps 720 mmHg 79%
    22:00 +27°C° 0.4 mm 1 mps 720 mmHg 80%
    23:00 +26°C° 0.7 mm 1 mps 720 mmHg 82%

    24 January, Friday

    Time Temperature Precipitation Wind Pressure Humidity
    00:00 +26°C° 0.7 mm 1 mps 720 mmHg 83%
    01:00 +26°C° 0.7 mm 1 mps 720 mmHg 85%
    02:00 +26°C° 0.1 mm 1 mps 719 mmHg 85%
    03:00 +24°C° 0.1 mm 0 mps 719 mmHg 86%
    04:00 +24°C° 0.1 mm 0 mps 719 mmHg 86%
    05:00 +24°C° 0 mm 0 mps 719 mmHg 86%
    06:00 +24°C° 0 mm 0 mps 720 mmHg 86%
    07:00 +24°C° 0 mm 0 mps 720 mmHg 86%
    08:00 +25°C° 0.1 mm 0 mps 721 mmHg 82%
    09:00 +28°C° 0.1 mm 1 mps 721 mmHg 78%
    10:00 +29°C° 0.1 mm 1 mps 721 mmHg 75%
    11:00 +30°C° 0.4 mm 2 mps 721 mmHg 71%
    12:00 +31°C° 0.4 mm 2 mps 720 mmHg 68%
    13:00 +32°C° 0.4 mm 2 mps 719 mmHg 64%
    14:00 +32°C° 0.2 mm 2 mps 719 mmHg 64%
    15:00 +32°C° 0.2 mm 2 mps 718 mmHg 63%
    16:00 +32°C° 0.2 mm 2 mps 718 mmHg 63%
    17:00 +31°C° 0.3 mm 2 mps 718 mmHg 68%
    18:00 +29°C° 0.3 mm 2 mps 718 mmHg 72%
    19:00 +28°C° 0.3 mm 1 mps 719 mmHg 77%
    20:00 +27°C° 0.4 mm 1 mps 720 mmHg 78%
    21:00 +27°C° 0.4 mm 1 mps 720 mmHg 79%
    22:00 +27°C° 0.4 mm 1 mps 721 mmHg 80%
    23:00 +26°C° 0.4 mm 1 mps 721 mmHg 80%
    Show more